VK2BNC-13 Weather Reports


time (UTC)temp
C
wind
direction
speed
KPH
gust
KPH
rain 1hr
cm
rain 24hr
cm
rain mn
cm
humidity
%
barometer
mb
20260831053739 25 78 3.2 8.0 0.00 0.03 0.03 43
20260831052238 25 150 3.2 9.7 0.00 0.03 0.03 38
20260831050736 25 40 1.6 9.7 0.00 0.03 0.03 39
20260831045236 25 50 3.2 9.7 0.00 0.03 0.03 41
20260831043735 25 268 1.6 9.7 0.00 0.03 0.03 41
20260831042235 24 127 3.2 9.7 0.00 0.03 0.03 41
20260831040734 25 78 1.6 8.0 0.00 0.03 0.03 42
20260831035235 24 142 1.6 11.3 0.00 0.03 0.03 42
20260831033734 23 329 3.2 9.7 0.00 0.03 0.03 45
20260831032234 23 29 3.2 9.7 0.00 0.03 0.03 44
20260831030735 23 330 4.8 9.7 0.00 0.03 0.03 45
20260831025235 22 350 3.2 9.7 0.00 0.03 0.03 48
20260831023734 22 34 1.6 8.0 0.00 0.03 0.03 49
20260831022234 22 43 4.8 8.0 0.00 0.03 0.03 51
20260831020734 22 170 1.6 8.0 0.00 0.03 0.03 54
20260831015235 21 342 1.6 6.4 0.00 0.03 0.03 55
20260831013734 20 195 1.6 8.0 0.00 0.03 0.03 56
20260831012232 20 31 1.6 8.0 0.00 0.03 0.03 59
20260831010730 20 11 1.6 6.4 0.00 0.03 0.03 61
20260831005230 18 12 1.6 8.0 0.00 0.03 0.03 63
20260831003727 18 44 3.2 8.0 0.00 0.03 0.03 64
20260831002224 17 125 1.6 8.0 0.00 0.03 0.03 67
20260831000724 17 43 1.6 8.0 0.00 0.03 0.03 69
20260830235224 16 17 1.6 8.0 0.00 0.03 0.03 72
20260830233724 15 41 1.6 8.0 0.00 0.03 0.03 74
20260830232224 15 346 1.6 4.8 0.00 0.03 0.03 77
20260830230724 13 77 0.0 4.8 0.00 0.03 0.03 79
20260830225224 13 0 3.2 6.4 0.00 0.03 0.03 81
20260830223725 12 26 1.6 4.8 0.00 0.03 0.03 83
20260830222224 11 16 1.6 4.8 0.00 0.03 0.03 86
20260830220722 11 8 1.6 4.8 0.00 0.03 0.03 92
20260830215218 10 43 3.2 6.4 0.00 0.03 0.03 95
20260830213713 9 50 0.0 4.8 0.00 0.03 0.03 97
20260830212210 8 51 1.6 3.2 0.00 0.03 0.03 97
20260830210711 7 57 1.6 4.8 0.00 0.03 0.03 97
20260830205207 7 41 1.6 3.2 0.00 0.03 0.03 98
20260830203705 6 60 0.0 1.6 0.00 0.03 0.03 97
20260830202205 6 61 0.0 1.6 0.00 0.03 0.03 97
20260830200702 6 121 0.0 1.6 0.03 0.03 0.03 97
20260830195202 6 130 0.0 3.2 0.03 0.03 0.03 96
20260830193702 6 65 1.6 3.2 0.03 0.03 0.03 97
20260830192202 6 40 1.6 3.2 0.03 0.03 0.03 97
20260830190700 6 79 1.6 3.2 0.00 0.00 0.00 96
20260830185200 6 44 1.6 3.2 0.00 0.00 0.00 96
20260830183700 6 55 1.6 3.2 0.00 0.00 0.00 96
20260830182200 6 59 0.0 3.2 0.00 0.00 0.00 96
20260830180700 6 66 1.6 3.2 0.00 0.00 0.00 96
20260830175200 6 64 0.0 4.8 0.00 0.00 0.00 96
20260830173659 6 43 1.6 4.8 0.00 0.00 0.00 95
20260830172159 7 59 0.0 1.6 0.00 0.00 0.00 95
20260830170655 7 89 0.0 0.0 0.00 0.00 0.00 96
20260830165153 7 89 0.0 1.6 0.00 0.00 0.00 95
20260830163654 7 89 0.0 1.6 0.00 0.00 0.00 95
20260830162151 7 89 0.0 1.6 0.00 0.00 0.00 95
20260830160650 7 43 0.0 1.6 0.00 0.00 0.00 95
20260830155148 8 65 0.0 0.0 0.00 0.00 0.00 94
20260830153647 8 65 0.0 0.0 0.00 0.00 0.00 94
20260830152146 8 65 0.0 1.6 0.00 0.00 0.00 94
20260830150644 8 65 0.0 1.6 0.00 0.00 0.00 94
20260830145142 8 39 0.0 1.6 0.00 0.00 0.00 94
20260830143642 9 39 0.0 1.6 0.00 0.00 0.00 94
20260830142154 9 52 0.0 3.2 0.00 0.00 0.00 93
20260830140642 9 48 0.0 0.0 0.00 0.00 0.00 93
20260830135154 9 48 0.0 0.0 0.00 0.00 0.00 92
20260830133654 9 48 0.0 0.0 0.00 0.00 0.00 91
20260830132141 10 48 0.0 1.6 0.00 0.00 0.00 91
20260830130653 10 48 0.0 0.0 0.00 0.00 0.00 91
20260830125153 10 48 0.0 1.6 0.00 0.00 0.00 90
20260830123654 11 48 0.0 3.2 0.00 0.00 0.00 90
20260830122142 11 318 0.0 3.2 0.00 0.00 0.00 90
20260830120653 11 347 0.0 0.0 0.00 0.00 0.00 89
20260830115151 11 34 0.0 0.0 0.00 0.00 0.00 87
20260830113651 11 31 0.0 0.0 0.00 0.00 0.00 88
20260830112147 12 31 0.0 0.0 0.00 0.00 0.00 87
20260830110647 12 31 0.0 0.0 0.00 0.00 0.00 85
20260830105136 12 31 0.0 1.6 0.00 0.00 0.00 84
20260830103645 13 31 0.0 0.0 0.00 0.00 0.00 82
20260830102134 13 31 0.0 1.6 0.00 0.00 0.00 81
20260830100633 14 31 0.0 1.6 0.00 0.00 0.00 80
20260830095142 15 31 0.0 0.0 0.00 0.00 0.00 77
20260830093632 15 31 0.0 1.6 0.00 0.00 0.00 76
20260830092129 16 65 0.0 1.6 0.00 0.00 0.00 74
20260830090628 16 65 1.6 3.2 0.00 0.00 0.00 72
20260830085138 17 68 1.6 3.2 0.00 0.00 0.00 70
20260830083634 17 83 0.0 3.2 0.00 0.00 0.00 67
20260830082134 18 68 1.6 3.2 0.00 0.00 0.00 63
20260830080629 18 40 1.6 6.4 0.00 0.00 0.00 60
20260830075129 20 109 1.6 6.4 0.00 0.00 0.00 53
20260830073628 21 96 1.6 4.8 0.00 0.00 0.00 42
20260830072128 21 112 0.0 4.8 0.00 0.00 0.00 38
20260830070629 22 121 1.6 6.4 0.00 0.00 0.00 36
20260830065128 22 125 1.6 8.0 0.00 0.00 0.00 37
20260830063622 23 83 1.6 8.0 0.00 0.00 0.00 38
20260830062123 23 112 1.6 8.0 0.00 0.00 0.00 37
20260830060621 23 104 0.0 9.7 0.00 0.00 0.00 37
20260830055121 23 82 3.2 9.7 0.00 0.00 0.00 36